Flag for Germany Weather past 2 weeks in Springe, Lower Saxony, Germany

Now
54 °F

Cool.


Feels Like: 49 °F
Forecast: 39 / 49 °F
Wind: 14 mph from West

Location: Wunstorf Airport


UV Index: 0 (Low)

Visibility: 3 mi


Pressure: 29.86 "Hg

Humidity: 54%

Dew point: 37 °F

Location of SpringeLocation

Historic Weather in Springe

°F

Springe temperature yesterday

Maximum temperature yesterday: 55 °F (at 4:20 PM)
Minimum temperature yesterday: 30 °F (at 5:20 AM)
Average temperature yesterday: 44 °F

Past Weeks' High & Low Weather Summary

 TemperatureHumidityPressure
High70 °F (Apr 3, 3:20 PM)100% (Apr 5, 6:20 AM)30.48 "Hg (Apr 5, 6:20 AM)
Low30 °F (Apr 16, 5:20 AM)36% (Apr 17, 2:20 PM)29.62 "Hg (Apr 3, 4:20 PM)
Average50 °F76%30.02 "Hg
* Reported Apr 2 10:20 PM — Apr 17 10:20 PM, Springe, Weather by CustomWeather, © 2014

Note: Actual official high and low records may vary slightly from our data, if they occured in-between our weather recording intervals... More about our weather records

Advertising

Historic Weather Conditions — Data for Previous 24 hours

 ConditionsComfort  
Time TempWeatherWind HumidityBarometerVisibility
10:20 PM
Apr 17
54 °FCool.14 mph54%29.86 "Hg3 mi
9:20 PM57 °FRefreshingly cool.8 mph39%29.89 "Hg3 mi
8:20 PM55 °FRefreshingly cool.6 mph47%29.89 "Hg3 mi
6:20 PM59 °FRefreshingly cool.10 mph36%29.95 "Hg3 mi
5:20 PM61 °FScattered clouds.12 mph36%29.95 "HgN/A
4:20 PM61 °FBroken clouds.10 mph36%30.01 "HgN/A
3:20 PM59 °FScattered clouds.10 mph39%30.04 "HgN/A
2:20 PM59 °FBroken clouds.13 mph36%30.09 "HgN/A
1:20 PM57 °FPartly sunny.10 mph41%30.12 "HgN/A
12:20 PM55 °FPartly sunny.10 mph44%30.15 "HgN/A
11:20 AM54 °FPartly sunny.10 mph44%30.21 "HgN/A
10:20 AM52 °FPartly sunny.9 mph44%30.24 "HgN/A
9:20 AM48 °FPartly sunny.10 mph50%30.24 "HgN/A
8:20 AM45 °FScattered clouds.6 mph61%30.27 "HgN/A
7:20 AM41 °FPassing clouds.3 mph61%30.27 "HgN/A
6:20 AM36 °FPassing clouds.6 mph70%30.27 "HgN/A
5:20 AM37 °FPassing clouds.2 mph70%30.30 "HgN/A
4:20 AM39 °FChilly.3 mph65%30.30 "Hg3 mi
3:20 AM39 °FChilly.3 mph65%30.33 "Hg3 mi
2:20 AM39 °FChilly.5 mph70%30.33 "Hg3 mi
1:20 AM37 °FChilly.3 mph75%30.36 "Hg3 mi
12:20 AM41 °FQuite cool.5 mph70%30.36 "Hg3 mi
11:20 PM
Apr 16
43 °FQuite cool.3 mph66%30.36 "Hg3 mi
Weather by CustomWeather, © 2014

See weather overview